When you browse on this site, cookies collect data to enhance your experience and personalize the content and advertising you see.
Visit our Privacy Policy to learn more. By continuing to use the site, you agree to this use of cookies and data.
EN

Hourly Weather Bubanza

Today, 24 September, Thursday

Time Temperature Precipitation Wind Pressure Humidity
00:00 +24°C° 0 mm 1 mps 673 mmHg 60%
01:00 +24°C° 0 mm 1 mps 673 mmHg 60%
02:00 +24°C° 0 mm 1 mps 672 mmHg 61%
03:00 +23°C° 0 mm 1 mps 672 mmHg 61%
04:00 +23°C° 0 mm 1 mps 672 mmHg 61%
05:00 +23°C° 0 mm 1 mps 672 mmHg 60%
06:00 +25°C° 0 mm 1 mps 673 mmHg 55%
07:00 +27°C° 0 mm 1 mps 674 mmHg 49%
08:00 +28°C° 0 mm 1 mps 675 mmHg 44%
09:00 +30°C° 0 mm 2 mps 675 mmHg 39%
10:00 +32°C° 0 mm 2 mps 675 mmHg 35%
11:00 +35°C° 0 mm 3 mps 675 mmHg 31%
12:00 +34°C° 0 mm 3 mps 674 mmHg 32%
13:00 +34°C° 0 mm 3 mps 673 mmHg 32%
14:00 +34°C° 0 mm 3 mps 672 mmHg 33%
15:00 +32°C° 0 mm 2 mps 672 mmHg 35%
16:00 +31°C° 0 mm 2 mps 671 mmHg 37%
17:00 +31°C° 0 mm 2 mps 671 mmHg 39%
18:00 +29°C° 0 mm 1 mps 671 mmHg 44%
19:00 +27°C° 0 mm 1 mps 672 mmHg 48%
20:00 +26°C° 0 mm 1 mps 672 mmHg 53%
21:00 +25°C° 0 mm 1 mps 672 mmHg 53%
22:00 +25°C° 0 mm 1 mps 673 mmHg 54%
23:00 +24°C° 0 mm 1 mps 673 mmHg 55%

Tomorrow, 25 September, Friday

Time Temperature Precipitation Wind Pressure Humidity
00:00 +24°C° 0 mm 1 mps 672 mmHg 55%
01:00 +24°C° 0 mm 1 mps 672 mmHg 56%
02:00 +24°C° 0 mm 1 mps 672 mmHg 57%
03:00 +22°C° 0 mm 0 mps 672 mmHg 58%
04:00 +22°C° 0 mm 0 mps 672 mmHg 58%
05:00 +22°C° 0 mm 0 mps 672 mmHg 59%
06:00 +23°C° 0 mm 0 mps 673 mmHg 55%
07:00 +27°C° 0 mm 1 mps 674 mmHg 50%
08:00 +28°C° 0 mm 1 mps 675 mmHg 46%
09:00 +29°C° 0 mm 1 mps 675 mmHg 45%
10:00 +29°C° 0 mm 2 mps 675 mmHg 44%
11:00 +29°C° 0 mm 2 mps 675 mmHg 43%
12:00 +30°C° 0 mm 2 mps 674 mmHg 40%
13:00 +31°C° 0 mm 3 mps 673 mmHg 37%
14:00 +34°C° 0 mm 3 mps 672 mmHg 34%
15:00 +33°C° 0 mm 3 mps 672 mmHg 37%
16:00 +30°C° 0 mm 3 mps 672 mmHg 39%
17:00 +29°C° 0 mm 2 mps 671 mmHg 42%
18:00 +28°C° 0 mm 2 mps 672 mmHg 46%
19:00 +27°C° 0 mm 1 mps 672 mmHg 50%
20:00 +25°C° 0 mm 1 mps 673 mmHg 54%
21:00 +25°C° 0 mm 1 mps 673 mmHg 56%
22:00 +25°C° 0 mm 1 mps 673 mmHg 58%
23:00 +24°C° 0 mm 1 mps 673 mmHg 60%

Day after tomorrow, 26 September, Saturday

Time Temperature Precipitation Wind Pressure Humidity
00:00 +24°C° 0 mm 1 mps 673 mmHg 63%
01:00 +23°C° 0 mm 1 mps 672 mmHg 65%
02:00 +20°C° 0 mm 0 mps 672 mmHg 67%
03:00 +20°C° 0 mm 0 mps 672 mmHg 68%
04:00 +20°C° 0 mm 0 mps 672 mmHg 69%
05:00 +22°C° 0 mm 1 mps 672 mmHg 70%
06:00 +24°C° 0 mm 1 mps 672 mmHg 64%
07:00 +26°C° 0 mm 1 mps 673 mmHg 58%
08:00 +28°C° 0 mm 1 mps 674 mmHg 51%
09:00 +31°C° 0 mm 1 mps 674 mmHg 44%
10:00 +33°C° 0 mm 1 mps 674 mmHg 36%
11:00 +36°C° 0 mm 1 mps 674 mmHg 28%
12:00 +35°C° 0 mm 2 mps 673 mmHg 33%
13:00 +33°C° 0 mm 3 mps 672 mmHg 38%
14:00 +30°C° 0 mm 4 mps 671 mmHg 43%
15:00 +29°C° 0 mm 3 mps 670 mmHg 48%
16:00 +29°C° 0 mm 2 mps 670 mmHg 52%
17:00 +28°C° 0 mm 2 mps 670 mmHg 57%
18:00 +27°C° 0.1 mm 1 mps 671 mmHg 59%
19:00 +26°C° 0.1 mm 1 mps 671 mmHg 62%
20:00 +24°C° 0.1 mm 0 mps 672 mmHg 64%
21:00 +23°C° 0.1 mm 0 mps 672 mmHg 67%
22:00 +22°C° 0.1 mm 0 mps 672 mmHg 69%
23:00 +22°C° 0.1 mm 0 mps 672 mmHg 72%

27 September, Sunday

Time Temperature Precipitation Wind Pressure Humidity
00:00 +21°C° 0.1 mm 0 mps 672 mmHg 73%
01:00 +21°C° 0.1 mm 0 mps 671 mmHg 74%
02:00 +22°C° 0.1 mm 1 mps 671 mmHg 76%
03:00 +22°C° 0 mm 1 mps 671 mmHg 77%
04:00 +22°C° 0 mm 1 mps 671 mmHg 77%
05:00 +22°C° 0 mm 1 mps 671 mmHg 78%
06:00 +24°C° 0 mm 1 mps 672 mmHg 69%
07:00 +26°C° 0 mm 1 mps 673 mmHg 60%
08:00 +29°C° 0 mm 1 mps 674 mmHg 52%
09:00 +31°C° 0.1 mm 1 mps 674 mmHg 45%
10:00 +33°C° 0.1 mm 1 mps 674 mmHg 39%
11:00 +35°C° 0.1 mm 1 mps 674 mmHg 33%
12:00 +34°C° 0.2 mm 1 mps 673 mmHg 36%
13:00 +34°C° 0.2 mm 2 mps 672 mmHg 40%
14:00 +32°C° 0.2 mm 2 mps 671 mmHg 43%
15:00 +29°C° 0.7 mm 2 mps 671 mmHg 55%
16:00 +27°C° 0.7 mm 1 mps 670 mmHg 67%
17:00 +24°C° 0.7 mm 1 mps 670 mmHg 78%
18:00 +24°C° 0.5 mm 1 mps 670 mmHg 81%
19:00 +23°C° 0.5 mm 1 mps 671 mmHg 83%
20:00 +23°C° 0.5 mm 1 mps 671 mmHg 86%
21:00 +23°C° 0.9 mm 1 mps 672 mmHg 86%
22:00 +21°C° 0.9 mm 0 mps 672 mmHg 86%
23:00 +21°C° 0.9 mm 0 mps 672 mmHg 85%

28 September, Monday

Time Temperature Precipitation Wind Pressure Humidity
00:00 +21°C° 0.3 mm 0 mps 672 mmHg 84%
01:00 +22°C° 0.3 mm 1 mps 672 mmHg 83%
02:00 +22°C° 0.3 mm 1 mps 671 mmHg 82%
03:00 +22°C° 0 mm 1 mps 672 mmHg 81%
04:00 +22°C° 0 mm 1 mps 672 mmHg 80%
05:00 +22°C° 0 mm 1 mps 672 mmHg 79%
06:00 +24°C° 0 mm 1 mps 673 mmHg 72%
07:00 +24°C° 0 mm 0 mps 674 mmHg 65%
08:00 +26°C° 0 mm 0 mps 674 mmHg 58%
09:00 +28°C° 0.3 mm 0 mps 675 mmHg 52%
10:00 +31°C° 0.3 mm 1 mps 675 mmHg 46%
11:00 +33°C° 0.3 mm 1 mps 675 mmHg 40%
12:00 +33°C° 0.4 mm 1 mps 674 mmHg 41%
13:00 +34°C° 0.4 mm 2 mps 673 mmHg 43%
14:00 +32°C° 0.4 mm 2 mps 672 mmHg 44%
15:00 +29°C° 2.9 mm 2 mps 671 mmHg 56%
16:00 +27°C° 2.9 mm 2 mps 671 mmHg 69%
17:00 +24°C° 2.9 mm 2 mps 670 mmHg 82%
18:00 +23°C° 1.9 mm 2 mps 671 mmHg 84%
19:00 +23°C° 1.9 mm 2 mps 672 mmHg 87%
20:00 +21°C° 1.9 mm 2 mps 672 mmHg 89%
21:00 +22°C° 0.9 mm 1 mps 672 mmHg 89%
22:00 +22°C° 0.9 mm 1 mps 672 mmHg 88%
23:00 +22°C° 0.9 mm 1 mps 673 mmHg 88%

29 September, Tuesday

Time Temperature Precipitation Wind Pressure Humidity
00:00 +22°C° 0.1 mm 1 mps 672 mmHg 87%
01:00 +22°C° 0.1 mm 1 mps 672 mmHg 85%
02:00 +22°C° 0.1 mm 1 mps 672 mmHg 84%
03:00 +22°C° 0 mm 1 mps 672 mmHg 83%
04:00 +22°C° 0 mm 1 mps 672 mmHg 82%
05:00 +22°C° 0 mm 1 mps 672 mmHg 81%
06:00 +23°C° 0.1 mm 1 mps 673 mmHg 76%
07:00 +23°C° 0.1 mm 0 mps 674 mmHg 72%
08:00 +24°C° 0.1 mm 0 mps 674 mmHg 67%
09:00 +28°C° 0.5 mm 1 mps 675 mmHg 61%
10:00 +30°C° 0.5 mm 1 mps 675 mmHg 56%
11:00 +31°C° 0.5 mm 1 mps 675 mmHg 51%
12:00 +31°C° 0.6 mm 1 mps 673 mmHg 51%
13:00 +31°C° 0.6 mm 2 mps 672 mmHg 52%
14:00 +31°C° 0.6 mm 2 mps 671 mmHg 53%
15:00 +29°C° 0.7 mm 2 mps 671 mmHg 58%
16:00 +28°C° 0.7 mm 2 mps 670 mmHg 64%
17:00 +27°C° 0.7 mm 1 mps 670 mmHg 69%
18:00 +26°C° 0.4 mm 1 mps 671 mmHg 72%
19:00 +25°C° 0.4 mm 1 mps 671 mmHg 76%
20:00 +22°C° 0.4 mm 0 mps 672 mmHg 79%
21:00 +21°C° 0.8 mm 0 mps 672 mmHg 80%
22:00 +23°C° 0.8 mm 1 mps 672 mmHg 81%
23:00 +23°C° 0.8 mm 1 mps 672 mmHg 82%
Show more